Regional Weather Roundup
Issued by NWS Grand Forks, ND

Home | Current Version | Previous Version | Graphics & Text | Print | Product List | Glossary On
Versions: 1 2 3 4 5 6 7 8 9 10 11 12 13 14 15 16 17 18 19 20 21 22 23 24 25 26 27 28 29 30 31 32 33 34 35 36 37 38 39 40 41 42 43 44 45 46 47 48 49 50
500
ASUS43 KFGF 200531
RWRFGF
PRAIRIE TO PINES  WEATHER ROUNDUP
NATIONAL WEATHER SERVICE EASTERN NORTH DAKOTA/GRAND FORKS ND
1100 PM CST SUN FEB 19 2017

 **SATELLITE DATA USED TO AUGMENT SKY COVER AT AUTOMATED STATIONS**
 *****  WEATHER ACROSS EASTERN NORTH DAKOTA  *****

CITY           SKY/WX    TMP DP  RH WIND       PRES   REMARKS
GRAND FORKS    FAIR      40  34  79 S14       29.60F
GRAND FRKS AFB FAIR      39  37  94 S9        29.60F
DEVILS LAKE    FOG       37  37 100 SE8       29.55S VSB 1/4
FARGO          FAIR      52  48  86 S21G32    29.62S
WAHPETON ARPT  FAIR      48  45  87 SE17      29.65F
$$

 ***** WEATHER ACROSS CENTRAL AND WESTERN NORTH DAKOTA  *****

CITY           SKY/WX    TMP DP  RH WIND       PRES   REMARKS
BISMARCK       FAIR      38  35  89 CALM      29.53R
MINOT          MOCLDY    32  30  92 CALM      29.54R FOG
JAMESTOWN      FAIR      41  41 100 SE12      29.55S FOG
MINOT AFB      FOG       32  32 100 N7        29.52S VSB 1/2
GARRISON         N/A     33  31  92 N6        29.53R
WILLISTON      CLOUDY    33  30  88 CALM      29.59R FOG
DICKINSON      CLOUDY    39  35  86 N7        29.51S
HETTINGER      MOCLDY    38  33  82 NW7       29.53R
$$

 *****  OTHER AIRPORT OBSERVATIONS IN OUR AREA  *****

CITY           SKY/WX    TMP DP  RH WIND       PRES   REMARKS
WALHALLA       NOT AVBL
GRAFTON AIRPOR FAIR      36  36 100 SE10      29.62F
VALLEY CITY AR FAIR      45  45 100 S14       29.59F
CANDO          NOT AVBL
CAVALIER APRT  CLOUDY    37  34  87 SE6       29.60F
GWINNER        FAIR      43  43 100 E5        29.60F
SHEYENNE NWR     N/A     49  47  93 S13       29.95S
ROLLA          FOG       34  34 100 S10       29.54S VSB 1/4
 ***** THE ABOVE OBSERVATIONS ARE NON NWS ARE NOT QUALITY
       CONTROLLED AND MAY MIS-REPORT RAIN FOR SNOW...
$$

  *****  WEATHER ACROSS NORTHERN MINNESOTA  *****

CITY           SKY/WX    TMP DP  RH WIND       PRES   REMARKS
FLAG ISLAND    FAIR      41  30  65 SE10G20   29.75S
WARROAD        FAIR      43  36  75 SE14      29.73S
ROSEAU         FAIR      43  36  75 SE14      29.70S
HALLOCK        FAIR      41  36  81 SE18      29.61F
THF RVR FALLS  FAIR      41  36  82 SE16      29.67F
BAUDETTE       FAIR      42  30  62 SE13      29.76F
WASKISH        FAIR      45  34  65 SE14      29.77F
CROOKSTON      FAIR      43  41  93 S17       29.64S
STEPHEN NDAWN    N/A     39  36  87 SE13        N/A
GREENBUSH NDAW   N/A     39  34  81 SE13        N/A
$$
  *****  WEATHER ACROSS CENTRAL AND WEST MINNESOTA  *****

CITY           SKY/WX    TMP DP  RH WIND       PRES   REMARKS
FOSSTON        FAIR      45  39  81 SE14      29.69S
BEMIDJI        FAIR      40  32  74 SE13      29.75S
PARK RAPIDS    FAIR      47  37  68 SE17G24   29.74F
ELBOW LAKE     FAIR      52  48  87 E18G26    29.69F
WADENA         FAIR      43  39  87 SE13      29.74F
DETROIT LAKES  FAIR      45  41  87 SE14      29.70F
MOORHEAD       FAIR     N/A N/A N/A SE21      29.64S
FERGUS FALLS   FAIR      52  46  82 SE17      29.71F
MORRIS MN      FAIR      48  46  93 SE17      29.69S
STAPLES        FAIR      46  39  76 SE9       29.77F
$$
  *****  WEATHER ELSEWHERE ACROSS MINNESOTA  *****

CITY           SKY/WX    TMP DP  RH WIND       PRES   REMARKS
DULUTH         FAIR      37  30  75 E15       29.93F
INTRNTL FALLS  FAIR      40  28  62 SE12      29.86S
ELY            FAIR      37  28  70 SE10      29.95F
CLOQUET        FAIR      36  30  80 E6        29.92F
WHEATON        FAIR      50  46  87 SE20      29.66F
BRAINERD       FAIR      48  38  68 SE10G18   29.81F
HIBBING        FAIR      36  29  75 SE7       29.90S
ALEXANDRIA     FAIR      47  45  93 SE12      29.75S
SAINT CLOUD    FAIR      49  41  74 SE12      29.80F
MINNEAPOLIS    MOCLDY    50  38  63 SE13      29.87F
$$

  *****  WEATHER ACROSS SOUTH DAKOTA  *****

CITY           SKY/WX    TMP DP  RH WIND       PRES   REMARKS
SIOUX FALLS    CLOUDY    56  50  80 S15       29.73R
BROOKINGS      FAIR      52  47  83 S15       29.70S
WATERTOWN      FAIR      50  46  86 S14       29.66F
HURON          FAIR      54  49  83 S14       29.62S
SISSETON         N/A     49  46  90 S14       29.62F
ABERDEEN       FAIR      54  46  74 S22       29.58S
MITCHELL       FAIR      56  49  77 S15       29.65S
PIERRE         FAIR      58  39  49 SW6       29.54F
MOBRIDGE       MOCLDY    45  35  68 SE12      29.49F
RAPID CITY     FAIR      57  35  43 W13       29.55F
$$

  *****  SOME WEATHER IN NEARBY STATES *****

CITY           SKY/WX    TMP DP  RH WIND       PRES   REMARKS
GLASGOW MT     FOG       27  25  92 CALM      29.59R VSB 1/4
GREAT FALLS MT FAIR      33  30  88 SW12      29.62R WCI  24
CHEYENNE WY    CLOUDY    41  29  62 NW13G23   29.72R
SCOTTSBLUFF NE FAIR      50  35  56 W12       29.64R
OMAHA NE       MOCLDY    59  52  77 S15       29.83F
DES MOINES IA  MOCLDY    59  46  62 SE10      29.89S
DAVENPORT IA   FAIR      56  46  69 S13       30.01F
CHICAGO IL     MOCLDY    46  30  53 SE3       30.11R
EAU CLAIRE WI  FAIR      50  35  56 SE9       29.95F
LA CROSSE WI   FAIR      51  37  58 SE7       29.98R
$$

  *****  SOME NATIONAL WEATHER *****

CITY           SKY/WX    TMP DP  RH WIND       PRES   REMARKS
LA GUARDIA NY  FAIR      54  33  45 NW17G25   29.97R
RALEIGH NC     FAIR      54  40  59 CALM      30.10R
ATLANTA GA     FAIR      54  46  74 N7        30.13F
NEW ORLEANS LA FAIR      66  65  96 SE9       30.06F
OKLAHOMA CITY  TSTM      58  58 100 CALM      29.85R FOG
ALBUQUERQUE NM MOCLDY    44  32  62 SW9       30.00R
SALT LAKE CITY FAIR      43  38  82 SE9       29.88R
LOS ANGELES CA CLOUDY    56  49  77 S3        30.13R
BOISE ID       MOCLDY    41  34  76 SE12      29.78R
SEATTLE WA     MOCLDY    45  37  73 S9        29.60R
$$

*** WEATHER ACROSS MANITOBA...SASKATCHEWAN AND ONTARIO ***
                ***ONTARIO***

CITY           SKY/WX    TMP DP  RH WIND       PRES   REMARKS
GERALDTON      CLEAR     25  21  86 SE3       30.17R
THUNDER BAY    MOCLDY    34  30  86 NE8       30.11
SIOUX LOOKOUT  MOCLDY    39  27  60 SE8       29.93S
TORONTO        CLEAR     36  27  69 NW7       30.15R
BIG TROUT LK   CLOUDY    23  21  93 SE7       30.11R WCI  15
PICKLE LAKE    NOT AVBL
DRYDEN         CLOUDY    41  28  60 SE17      29.88S
KENORA         MOCLDY    41  28  60 SE16G25   29.79F
$$
                *** MANITOBA***

CITY           SKY/WX    TMP DP  RH WIND       PRES   REMARKS
BRANDON        CLOUDY    34  30  86 NE9       29.57F
DAUPHIN        CLOUDY    30  28  93 NE8       29.64F WCI  23
ISLAND LAKE    CLOUDY    25  21  86 E6        29.94F WCI  18
PILOT MOUND      N/A     36  34  93 SE14        N/A
THE PAS        LGTSLEET  27  19  74 E14       29.75F WCI  15
THOMPSON       CLOUDY    19  16  86 E6        29.95F WCI  11
WINNIPEG       CLOUDY    39  32  75 SE13      29.63F
LYNN LAKE      CLOUDY    19  18  93 E9        29.87F WCI   9
CHURCHILL      FLURRIES  12   9  85 SE5       30.13S WCI   4
GILLAM         CLOUDY    19  14  79 E3        30.05F
$$
                ***SASKATCHEWAN***

CITY           SKY/WX    TMP DP  RH WIND       PRES   REMARKS
ESTEVAN        CLOUDY    32  32 100 W6        29.55S FOG
KINDERSLEY     CLOUDY    32  32 100 SW7       29.50R
LLOYDMINSTER   DRIZZLE   32  32 100 S3        29.47S FOG
PRINCE ALBERT  LGT SNOW  28  25  86 SE14G23   29.61R WCI  17
REGINA         CLOUDY    32  32 100 S3        29.57S FOG
YORKTON        CLOUDY    28  28 100 E3        29.61R FOG
N. BATTLEFORD  CLOUDY    34 N/A N/A SE10      29.51S
LA RONGE       SNOWSHWR  27  21  80 E10G18    29.68F DRFTSNOWWCI  17
SASKATOON      CLOUDY    34  32  93 SE12      29.55R
SWIFT CURRENT  MOCLDY    34  32  93 SW9       29.52S
$$
NOTE: THESE ARE AUTOMATED STATIONS WITH LIMITED QUALITY CONTROL
      "FAIR" INDICATES FEW OR NO CLOUDS BELOW 12,000 FEET WITH NO
      SIGNIFICANT WEATHER AND/OR OBSTRUCTIONS TO VISIBILITY.
      SKY/WX - SKY CONDITION AND SIGNIFICANT WEATHER.
      TMP - AIR TEMPERATURE.    DP   - DEWPOINT TEMPERATURE.
      RH  - RELATIVE HUMIDITY.  PRES - PRESSURE.
      HX  - HEAT INDEX.         WCI  - WIND CHILL INDEX.
$




USA.gov is the U.S. government's official web portal to all federal, state and local government web resources and services.